Weather History for KOWB - March, 2014

Change the Weather History Date:

Monday, March 10, 2014

  Actual Average Record
Temperature  
Mean Temperature 48 °F -  
Max Temperature 65 °F 56 °F 77 °F (2009)
Min Temperature 32 °F 35 °F 12 °F (1932)
Degree Days  
Heating Degree Days 16    
Moisture  
Dew Point 39 °F    
Average Humidity 77    
Maximum Humidity 100    
Minimum Humidity 37    
Precipitation  
Precipitation 0.00 in - - ()
Sea Level Pressure  
Sea Level Pressure 29.94 in    
Wind  
Wind Speed 9 mph (SW)    
Max Wind Speed 18 mph    
Max Gust Speed 24 mph    
Visibility 7 miles    
Events      
Averages and records for this station are not official NWS values.
T = Trace of Precipitation, MM = Missing Value Source: NWS Daily Summary

Daily Weather History Graph

Daily Weather History Graph

Search for Another Location

Airport or City:

Trip Planner

Search our weather history database for the weather conditions in past years. The results will help you decide how hot, cold, wet, or windy it might be!

Date:

Astronomy

Mar. 10, 2014 Rise Set
Actual Time 7:07 AM CDT 6:51 PM CDT
Civil Twilight 6:41 AM CDT 7:17 PM CDT
Nautical Twilight 6:10 AM CDT 7:47 PM CDT
Astronomical Twilight 5:40 AM CDT 8:18 PM CDT
Moon 1:38 PM CDT (3/10) 3:14 AM CDT (3/10)
Length of Visible Light 12h 36m
Length of Day
11h 43m
Waxing Gibbous, 70% of the Moon is Illuminated
Mar 10
Waxing Gibbous
Mar 16
Full
Mar 23
Last Quarter
Mar 30
New
Apr 7
First Quarter

Hourly Weather History & Observations

Time (CDT) Temp. Windchill Dew Point Humidity Pressure Visibility Wind Dir Wind Speed Gust Speed Precip Events Conditions
12:56 AM 34.9 °F 29.0 °F 32.0 °F 89% 30.09 in 10.0 mi SSW 6.9 mph - N/A   Clear
1:56 AM 34.0 °F 28.0 °F 32.0 °F 92% 30.08 in 8.0 mi SW 6.9 mph - N/A   Clear
2:56 AM 32.9 °F 26.7 °F 32.0 °F 96% 30.07 in 6.0 mi SW 6.9 mph - N/A   Clear
3:56 AM 32.9 °F 27.5 °F 32.9 °F 100% 30.05 in 5.0 mi SSW 5.8 mph - N/A   Clear
4:56 AM 34.0 °F 29.8 °F 34.0 °F 100% 30.03 in 5.0 mi South 4.6 mph - N/A   Clear
5:56 AM 34.0 °F 28.8 °F 34.0 °F 100% 30.02 in 5.0 mi South 5.8 mph - N/A   Clear
6:56 AM 34.0 °F 28.0 °F 34.0 °F 100% 30.01 in 4.0 mi SSW 6.9 mph - N/A   Clear
7:09 AM 33.8 °F 27.7 °F 33.8 °F 100% 30.01 in 2.5 mi SSW 6.9 mph - N/A   Clear
7:56 AM 36.0 °F 29.6 °F 36.0 °F 100% 30.01 in 2.5 mi SSW 8.1 mph - N/A   Clear
8:56 AM 41.0 °F 34.3 °F 41.0 °F 100% 30.02 in 2.5 mi SW 11.5 mph - N/A   Clear
9:23 AM 44.6 °F 38.4 °F 42.8 °F 93% 30.00 in 3.0 mi SW 12.7 mph - N/A   Clear
9:56 AM 46.9 °F - 43.9 °F 89% 30.00 in 3.0 mi SW 13.8 mph - N/A   Clear
10:56 AM 52.9 °F - 45.0 °F 74% 29.98 in 4.0 mi SW 13.8 mph - N/A   Haze
11:56 AM 57.9 °F - 45.0 °F 62% 29.97 in 7.0 mi SW 10.4 mph - N/A   Clear
12:56 PM 61.9 °F - 41.9 °F 48% 29.93 in 10.0 mi SW 13.8 mph - N/A   Clear
1:56 PM 63.9 °F - 41.9 °F 45% 29.89 in 10.0 mi SSW 17.3 mph 24.2 mph N/A   Clear
2:56 PM 65.8 °F - 38.8 °F 37% 29.86 in 10.0 mi SW 16.1 mph 20.7 mph N/A   Clear
3:56 PM 65.8 °F - 41.0 °F 40% 29.84 in 10.0 mi SW 15.0 mph - N/A   Clear
4:56 PM 63.9 °F - 41.9 °F 45% 29.81 in 10.0 mi SSW 18.4 mph - N/A   Clear
5:56 PM 63.0 °F - 41.9 °F 46% 29.81 in 10.0 mi SW 12.7 mph - N/A   Clear
6:56 PM 56.8 °F - 43.0 °F 60% 29.81 in 10.0 mi SSW 11.5 mph - N/A   Clear
7:56 PM 52.0 °F - 41.9 °F 69% 29.81 in 10.0 mi SW 8.1 mph - N/A   Clear
8:56 PM 48.9 °F - 41.0 °F 74% 29.83 in 10.0 mi WSW 8.1 mph - N/A   Clear
9:56 PM 48.9 °F - 41.9 °F 77% 29.83 in 10.0 mi SSW 8.1 mph - N/A   Clear
10:56 PM 46.9 °F - 41.9 °F 83% 29.82 in 10.0 mi SSW 6.9 mph - N/A   Clear
11:56 PM 46.9 °F - 43.0 °F 86% 29.81 in 10.0 mi SW 8.1 mph - N/A   Clear